TimeCST,TemperatureF,Dew PointF,Humidity,Sea Level PressureIn,VisibilityMPH,Wind Direction,Wind SpeedMPH,Gust SpeedMPH,PrecipitationIn,Events,Conditions,WindDirDegrees,DateUTC
12:51 AM,63.0,57.0,81,30.04,10.0,SSW,11.5,-,N/A,,Clear,200,2013-01-25 06:51:00
1:51 AM,62.1,57.0,84,30.04,10.0,SSW,10.4,-,N/A,,Clear,200,2013-01-25 07:51:00
2:51 AM,59.0,55.9,90,30.04,9.0,South,6.9,-,N/A,,Clear,170,2013-01-25 08:51:00
3:51 AM,57.9,55.9,93,30.03,6.0,South,10.4,-,N/A,,Clear,180,2013-01-25 09:51:00
4:51 AM,55.4,53.6,94,30.05,4.0,SSE,3.5,-,N/A,,Clear,160,2013-01-25 10:51:00
5:06 AM,53.6,53.6,100,30.06,2.0,Calm,Calm,-,N/A,,Partly Cloudy,0,2013-01-25 11:06:00
5:10 AM,51.8,51.8,100,30.06,1.0,Calm,Calm,-,N/A,,Mist,0,2013-01-25 11:10:00
5:13 AM,53.6,51.8,94,30.06,0.2,Calm,Calm,-,N/A,Fog,Fog,0,2013-01-25 11:13:00
5:26 AM,55.4,53.6,94,30.05,1.2,SSE,5.8,-,N/A,,Mostly Cloudy,160,2013-01-25 11:26:00
5:35 AM,55.4,53.6,94,30.06,2.5,South,3.5,-,N/A,,Overcast,190,2013-01-25 11:35:00
5:42 AM,55.4,55.4,100,30.07,4.0,WSW,3.5,-,N/A,,Overcast,240,2013-01-25 11:42:00
5:51 AM,57.0,55.0,93,30.05,4.0,SSW,3.5,-,N/A,,Overcast,210,2013-01-25 11:51:00
6:51 AM,57.9,57.0,97,30.06,4.0,South,6.9,-,N/A,,Overcast,190,2013-01-25 12:51:00
7:27 AM,55.4,55.4,100,30.09,1.5,Calm,Calm,-,N/A,,Overcast,0,2013-01-25 13:27:00
7:51 AM,55.9,55.0,97,30.10,1.0,NW,4.6,-,N/A,,Overcast,320,2013-01-25 13:51:00
8:34 AM,59.0,55.4,88,30.11,2.0,Calm,Calm,-,N/A,,Overcast,0,2013-01-25 14:34:00
8:51 AM,55.9,53.1,90,30.11,3.0,North,10.4,-,N/A,,Overcast,350,2013-01-25 14:51:00
9:21 AM,51.8,46.4,82,30.14,4.0,NNW,10.4,-,N/A,,Haze,340,2013-01-25 15:21:00
9:33 AM,51.8,46.4,82,30.14,4.0,NNW,9.2,-,N/A,,Haze,330,2013-01-25 15:33:00
9:51 AM,53.1,46.0,77,30.14,4.0,North,8.1,-,N/A,,Haze,350,2013-01-25 15:51:00
10:51 AM,55.0,48.0,77,30.14,4.0,Calm,Calm,-,N/A,,Haze,0,2013-01-25 16:51:00
11:51 AM,60.1,48.9,67,30.14,4.0,NNW,5.8,-,N/A,,Haze,340,2013-01-25 17:51:00
12:51 PM,60.1,50.0,69,30.11,4.0,North,12.7,-,N/A,,Haze,360,2013-01-25 18:51:00
1:51 PM,59.0,50.0,72,30.09,4.0,North,15.0,-,N/A,,Haze,10,2013-01-25 19:51:00
2:25 PM,57.2,48.2,72,30.11,3.0,North,17.3,-,N/A,,Haze,10,2013-01-25 20:25:00
2:51 PM,57.0,48.9,74,30.10,3.0,NNE,15.0,-,N/A,,Haze,20,2013-01-25 20:51:00
3:21 PM,57.2,48.2,72,30.10,3.0,North,17.3,-,N/A,,Haze,10,2013-01-25 21:21:00
3:51 PM,57.9,48.9,72,30.09,3.0,North,12.7,-,N/A,,Haze,360,2013-01-25 21:51:00
4:39 PM,57.2,48.2,72,30.10,3.0,North,17.3,20.7,N/A,,Haze,10,2013-01-25 22:39:00
4:51 PM,55.9,48.0,75,30.10,3.0,North,16.1,-,N/A,,Haze,10,2013-01-25 22:51:00
5:51 PM,53.1,45.0,74,30.12,3.0,North,15.0,-,N/A,,Haze,10,2013-01-25 23:51:00
6:51 PM,50.0,44.1,80,30.14,3.0,North,12.7,-,N/A,,Haze,360,2013-01-26 00:51:00
7:47 PM,48.2,42.8,82,30.16,3.0,North,13.8,-,N/A,,Haze,350,2013-01-26 01:47:00
7:51 PM,48.9,43.0,80,30.16,3.0,North,13.8,-,N/A,,Haze,350,2013-01-26 01:51:00
8:51 PM,50.0,43.0,77,30.15,3.0,NNW,8.1,-,N/A,,Haze,340,2013-01-26 02:51:00
9:51 PM,50.0,43.0,77,30.16,5.0,North,6.9,-,N/A,,Haze,360,2013-01-26 03:51:00
10:51 PM,50.0,43.0,77,30.17,5.0,North,5.8,-,N/A,,Haze,350,2013-01-26 04:51:00
11:51 PM,50.0,42.8,76,30.18,5.0,NNW,5.8,-,N/A,,Haze,330,2013-01-26 05:51:00
11:58 PM,50.0,42.8,76,30.18,5.0,NNW,6.9,-,N/A,,Haze,330,2013-01-26 05:58:00